Weather in Yingcheng

China     44°13′41″N   126°01′30″E
temp.,
°C
wind,
m/s
gust,
m/s
humid.,
%
clouds,
%
prec.,
mm/h
press.,
hPa
HPBL,
m
17 april, sat
sat1723:00+7sw71141100 0.0 10041003
02:00+4ssw5114928 0.0 1007430
05:00+3ssw36515 0.0 1008141
08:00+7sw564371 0.0 10101409
11:00+9sw323896 0.0 10111916
14:00+11nw2331100 0.0 10102223
17:00+8nnw7764100 0.3 1012892
20:00+5n477617 0.3 1014394
18 april, sun
sun1823:00+4n237939 0.0 1014107
02:00+2nnw228920 0.0 101529
05:00+3wnw238495 0.0 1016130
08:00+6nw236459 0.0 1016816
11:00+12wnw44425 0.0 10141364
14:00+16w45270 0.0 10111685
17:00+16w34210 0.0 10091585
20:00+11ssw22210 0.0 101014
19 april, mon
mon1923:00+9s34230 0.0 100954
02:00+8sse4931100 0.0 1007159
05:00+7s31034100 0.0 1006193
08:00+12sw44275 0.0 1007489
11:00+19wnw45190 0.0 10061038
14:00+22nnw710151 0.0 10062470
17:00+21nnw79200 0.0 10082667
20:00+15n813400 0.0 1012657
20 april, tue
tue2023:00+11nne612440 0.0 1016523
02:00+8nne612380 0.0 1018512
05:00+6nne410350 0.0 1021383
08:00+8ne56200 0.0 1023795
11:00+13nne44120 0.0 10221052
14:00+16nne32100 0.0 10201219
17:00+16ene11100 0.0 10191028
20:00+11ese33150 0.0 102026
21 april, wed
wed2123:00+10ese22170 0.0 102110
02:00+9sse23190 0.0 102017
05:00+8sse34215 0.0 101944
08:00+17s69205 0.0 1018403
11:00+24sw7102496 0.0 10171464
14:00+26sw91219100 0.0 10142167
17:00+24sw71221100 0.0 10141588
20:00+20sw81619100 0.0 1015806